If you wish to contribute or participate in the discussions about articles you are invited to join SKYbrary as a registered user

 Actions

Figari Sud-Corse Airport

From SKYbrary Wiki

LFKF /
Revision as of 20:15, 16 February 2015 by Timo.Kouwenhoven (talk | contribs) (LF Airports CSV import)
(diff) ← Older revision | Latest revision (diff) | Newer revision → (diff)
Airport
ICAO: LFKF – IATA: FSC
Summary
Name Figari Sud-Corse Airport
Region Europe
Territory France FR.gif
Location , Corse
Serving Figari
Elevation 26.518 m
87 ft
87 ft26.518 m
Type medium airport
Coordinates 41° 30' 2.01" N, 9° 5' 52.00" E
Runways
Designator Length Width Surface ROPS
5/23 2480 m8,136.483 ft
45 m147.638 ft
ASP yes/yes


METAR
Observation LFKF 262300Z AUTO 02004KT CAVOK 04/04 Q1021
Station Figari
Date/Time 26 January 2020 23:00:00
Wind direction 20°
Wind speed 04 kts
Lowest cloud amount clouds and visibility OK
Temperature 4°C
Dew point 4°C
Humidity 100%
QNH 1021 hPa
Weather condition n/a